Time,TemperatureF,DewpointF,PressureIn,WindDirection,WindDirectionDegrees,WindSpeedMPH,WindSpeedGustMPH,Humidity,HourlyPrecipIn,Conditions,Clouds,dailyrainin,SolarRadiationWatts/m^2,SoftwareType,DateUTC
2013-01-06 15:22:00,16.0,13.0,-100.00,SW,219,13.0,16.0,88,0.00,,,0.00,148.000000,,2013-01-06 21:22:00,
2013-01-06 15:33:00,16.0,13.0,-100.00,SW,219,13.0,16.0,88,0.00,,,0.00,148.000000,,2013-01-06 21:33:00,
2013-01-06 15:42:00,16.0,13.0,-100.00,SW,219,13.0,16.0,88,0.00,,,0.00,148.000000,,2013-01-06 21:42:00,
2013-01-06 15:52:00,16.0,13.0,-100.00,SW,219,13.0,16.0,88,0.00,,,0.00,148.000000,,2013-01-06 21:52:00,
2013-01-06 16:22:00,15.0,12.0,-100.00,SSW,208,11.0,14.0,89,0.00,,,0.00,96.000000,,2013-01-06 22:22:00,
2013-01-06 16:33:00,15.0,12.0,-100.00,SSW,208,11.0,14.0,89,0.00,,,0.00,96.000000,,2013-01-06 22:33:00,
2013-01-06 16:43:00,15.0,12.0,-100.00,SSW,208,11.0,14.0,89,0.00,,,0.00,96.000000,,2013-01-06 22:43:00,
2013-01-06 16:52:00,15.0,12.0,-100.00,SSW,208,11.0,14.0,89,0.00,,,0.00,96.000000,,2013-01-06 22:52:00,
2013-01-06 17:22:00,16.0,14.0,-100.00,SSW,200,13.0,16.0,90,0.00,,,0.00,29.000000,,2013-01-06 23:22:00,
2013-01-06 17:33:00,16.0,14.0,-100.00,SSW,200,13.0,16.0,90,0.00,,,0.00,29.000000,,2013-01-06 23:33:00,
2013-01-06 17:43:00,16.0,14.0,-100.00,SSW,200,13.0,16.0,90,0.00,,,0.00,29.000000,,2013-01-06 23:43:00,
2013-01-06 17:52:00,16.0,14.0,-100.00,SSW,200,13.0,16.0,90,0.00,,,0.00,29.000000,,2013-01-06 23:52:00,
2013-01-06 18:23:00,18.0,16.0,-100.00,SSW,194,13.0,19.0,91,0.00,,,0.00,0.000000,,2013-01-07 00:23:00,
2013-01-06 18:33:00,18.0,16.0,-100.00,SSW,194,13.0,19.0,91,0.00,,,0.00,0.000000,,2013-01-07 00:33:00,
2013-01-06 18:42:00,18.0,16.0,-100.00,SSW,194,13.0,19.0,91,0.00,,,0.00,0.000000,,2013-01-07 00:42:00,
2013-01-06 18:52:00,18.0,16.0,-100.00,SSW,194,13.0,19.0,91,0.00,,,0.00,0.000000,,2013-01-07 00:52:00,
2013-01-06 19:23:00,19.0,17.0,-100.00,SSW,192,18.0,21.0,91,0.00,,,0.00,0.000000,,2013-01-07 01:23:00,
2013-01-06 19:32:00,19.0,17.0,-100.00,SSW,192,18.0,21.0,91,0.00,,,0.00,0.000000,,2013-01-07 01:32:00,
2013-01-06 19:42:00,19.0,17.0,-100.00,SSW,192,18.0,21.0,91,0.00,,,0.00,0.000000,,2013-01-07 01:42:00,
2013-01-06 19:52:00,19.0,17.0,-100.00,SSW,192,18.0,21.0,91,0.00,,,0.00,0.000000,,2013-01-07 01:52:00,
2013-01-06 20:22:00,24.0,20.0,-100.00,SSW,202,23.0,34.0,84,0.00,,,0.00,0.000000,,2013-01-07 02:22:00,
2013-01-06 20:32:00,24.0,20.0,-100.00,SSW,202,23.0,34.0,84,0.00,,,0.00,0.000000,,2013-01-07 02:32:00,
2013-01-06 20:42:00,24.0,20.0,-100.00,SSW,202,23.0,34.0,84,0.00,,,0.00,0.000000,,2013-01-07 02:42:00,
2013-01-06 20:52:00,24.0,20.0,-100.00,SSW,202,23.0,34.0,84,0.00,,,0.00,0.000000,,2013-01-07 02:52:00,
2013-01-06 21:22:00,22.0,16.0,-100.00,SSW,207,21.0,30.0,79,0.00,,,0.00,0.000000,,2013-01-07 03:22:00,
2013-01-06 21:33:00,22.0,16.0,-100.00,SSW,207,21.0,30.0,79,0.00,,,0.00,0.000000,,2013-01-07 03:33:00,
2013-01-06 21:43:00,22.0,16.0,-100.00,SSW,207,21.0,30.0,79,0.00,,,0.00,0.000000,,2013-01-07 03:43:00,
2013-01-06 21:52:00,22.0,16.0,-100.00,SSW,207,21.0,30.0,79,0.00,,,0.00,0.000000,,2013-01-07 03:52:00,
2013-01-06 22:12:00,26.0,20.0,-100.00,SW,222,26.0,33.0,77,0.00,,,0.00,0.000000,,2013-01-07 04:12:00,
2013-01-06 22:22:00,26.0,20.0,-100.00,SW,222,26.0,33.0,77,0.00,,,0.00,0.000000,,2013-01-07 04:22:00,
2013-01-06 22:32:00,26.0,20.0,-100.00,SW,222,26.0,33.0,77,0.00,,,0.00,0.000000,,2013-01-07 04:32:00,
2013-01-06 22:42:00,26.0,20.0,-100.00,SW,222,26.0,33.0,77,0.00,,,0.00,0.000000,,2013-01-07 04:42:00,
2013-01-06 22:52:00,26.0,20.0,-100.00,SW,222,26.0,33.0,77,0.00,,,0.00,0.000000,,2013-01-07 04:52:00,
2013-01-06 23:22:00,28.0,22.0,-100.00,WSW,237,23.0,34.0,79,0.00,,,0.00,0.000000,,2013-01-07 05:22:00,
2013-01-06 23:33:00,28.0,22.0,-100.00,WSW,237,23.0,34.0,79,0.00,,,0.00,0.000000,,2013-01-07 05:33:00,
2013-01-06 23:42:00,28.0,22.0,-100.00,WSW,237,23.0,34.0,79,0.00,,,0.00,0.000000,,2013-01-07 05:42:00,
2013-01-06 23:52:00,28.0,22.0,-100.00,WSW,237,23.0,34.0,79,0.00,,,0.00,0.000000,,2013-01-07 05:52:00,